Location: T�bingen+AIT
(48.5342°N, 9.0700°E)
Time: 20:28:17
(UTC+02:00)

Cosmos 468 Rocket - Pass Details

Date: 14 September 2017
Orbit: 744 x 781 km, 74.0° (Epoch: 19 September)

Event Time Altitude Azimuth Distance (km) Brightness Sun altitude
Rises 21:55:28 0° 209° (SSW) 3,195 7.2 -22.1°
Reaches altitude 10° 21:57:50 10° 211° (SSW) 2,279 6.4 -22.4°
Maximum altitude 22:02:59 69° 295° (WNW) 819 4.2 -23.1°
Drops below altitude 10° 22:08:14 10° 19° (NNE) 2,320 6.7 -23.9°
Sets 22:10:39 0° 22° (NNE) 3,256 7.4 -24.2°
